When you browse on this site, cookies collect data to enhance your experience and personalize the content and advertising you see.
Visit our Privacy Policy to learn more. By continuing to use the site, you agree to this use of cookies and data.
  • In Hungary
  • List of Countries
  • For 7 days
  • Water Temperature
  • Satellite Maps
  • Weather Map
  • News
  • Weather Widgets
  • user-avatar
    Login

    Hourly Weather Dingle

    Today, 18 February, Monday

    Time Temperature Precipitation Wind Pressure Humidity
    00:00 +5°C° 0 mm 5 mps 745 mmHg 87%
    01:00 +3°C° 0 mm 5 mps 745 mmHg 85%
    02:00 +3°C° 0 mm 5 mps 745 mmHg 83%
    03:00 +3°C° 0 mm 6 mps 745 mmHg 81%
    04:00 +3°C° 0 mm 6 mps 746 mmHg 80%
    05:00 +3°C° 0 mm 6 mps 746 mmHg 81%
    06:00 +3°C° 0 mm 7 mps 746 mmHg 81%
    07:00 +4°C° 0 mm 7 mps 746 mmHg 82%
    08:00 +5°C° 0 mm 7 mps 747 mmHg 83%
    09:00 +5°C° 0.1 mm 7 mps 747 mmHg 80%
    10:00 +6°C° 0.1 mm 7 mps 747 mmHg 77%
    11:00 +8°C° 0 mm 6 mps 748 mmHg 72%
    12:00 +8°C° 0.1 mm 6 mps 748 mmHg 72%
    13:00 +8°C° 0.1 mm 6 mps 748 mmHg 72%
    14:00 +8°C° 0.1 mm 7 mps 748 mmHg 72%
    15:00 +7°C° 0 mm 6 mps 749 mmHg 76%
    16:00 +6°C° 0 mm 5 mps 749 mmHg 80%
    17:00 +5°C° 0 mm 5 mps 749 mmHg 84%
    18:00 +4°C° 0 mm 4 mps 750 mmHg 86%
    19:00 +4°C° 0 mm 4 mps 750 mmHg 87%
    20:00 +3°C° 0 mm 4 mps 750 mmHg 88%
    21:00 +3°C° 0 mm 4 mps 751 mmHg 88%
    22:00 +3°C° 0 mm 4 mps 751 mmHg 87%
    23:00 +3°C° 0 mm 4 mps 751 mmHg 86%

    Tomorrow, 19 February, Tuesday

    Time Temperature Precipitation Wind Pressure Humidity
    00:00 +3°C° 0 mm 4 mps 751 mmHg 85%
    01:00 +3°C° 0 mm 4 mps 751 mmHg 85%
    02:00 +3°C° 0 mm 4 mps 750 mmHg 85%
    03:00 +3°C° 0 mm 5 mps 750 mmHg 84%
    04:00 +5°C° 0 mm 5 mps 750 mmHg 82%
    05:00 +4°C° 0 mm 6 mps 749 mmHg 81%
    06:00 +5°C° 0.1 mm 7 mps 749 mmHg 83%
    07:00 +5°C° 0.1 mm 7 mps 748 mmHg 84%
    08:00 +5°C° 0.1 mm 8 mps 748 mmHg 86%
    09:00 +5°C° 0.7 mm 9 mps 748 mmHg 88%
    10:00 +6°C° 0.7 mm 10 mps 747 mmHg 89%
    11:00 +6°C° 0.7 mm 10 mps 747 mmHg 91%
    12:00 +6°C° 1.2 mm 11 mps 746 mmHg 92%
    13:00 +6°C° 1.2 mm 11 mps 746 mmHg 93%
    14:00 +7°C° 1.2 mm 12 mps 745 mmHg 93%
    15:00 +7°C° 1.2 mm 11 mps 745 mmHg 94%
    16:00 +7°C° 1.2 mm 11 mps 745 mmHg 94%
    17:00 +8°C° 1.2 mm 11 mps 744 mmHg 94%
    18:00 +8°C° 0.2 mm 11 mps 745 mmHg 93%
    19:00 +8°C° 0.2 mm 11 mps 745 mmHg 93%
    20:00 +8°C° 0.2 mm 11 mps 745 mmHg 92%
    21:00 +8°C° 0.3 mm 11 mps 745 mmHg 92%
    22:00 +8°C° 0.3 mm 11 mps 745 mmHg 92%
    23:00 +8°C° 0.3 mm 11 mps 745 mmHg 93%

    Day after tomorrow, 20 February, Wednesday

    Time Temperature Precipitation Wind Pressure Humidity
    00:00 +8°C° 0.1 mm 11 mps 745 mmHg 93%
    01:00 +8°C° 0.1 mm 11 mps 745 mmHg 93%
    02:00 +8°C° 0.1 mm 11 mps 745 mmHg 93%
    03:00 +8°C° 0.5 mm 11 mps 745 mmHg 93%
    04:00 +8°C° 0.5 mm 11 mps 745 mmHg 93%
    05:00 +8°C° 0.5 mm 11 mps 745 mmHg 94%
    06:00 +8°C° 0.4 mm 10 mps 745 mmHg 94%
    07:00 +8°C° 0.4 mm 10 mps 745 mmHg 94%
    08:00 +8°C° 0.4 mm 9 mps 746 mmHg 94%
    09:00 +8°C° 0.1 mm 9 mps 746 mmHg 94%
    10:00 +8°C° 0.1 mm 9 mps 747 mmHg 95%
    11:00 +8°C° 0.1 mm 9 mps 747 mmHg 95%
    12:00 +10°C° 0.1 mm 9 mps 747 mmHg 95%
    13:00 +10°C° 0.1 mm 9 mps 747 mmHg 95%
    14:00 +10°C° 0.1 mm 8 mps 748 mmHg 95%
    15:00 +9°C° 0.1 mm 8 mps 748 mmHg 95%
    16:00 +9°C° 0.1 mm 8 mps 748 mmHg 95%
    17:00 +9°C° 0.1 mm 8 mps 748 mmHg 95%
    18:00 +8°C° 0.1 mm 9 mps 748 mmHg 94%
    19:00 +8°C° 0.1 mm 9 mps 748 mmHg 94%
    20:00 +8°C° 0.1 mm 10 mps 749 mmHg 93%
    21:00 +8°C° 0 mm 10 mps 749 mmHg 93%
    22:00 +8°C° 0 mm 10 mps 749 mmHg 93%
    23:00 +8°C° 0 mm 10 mps 749 mmHg 92%

    21 February, Thursday

    Time Temperature Precipitation Wind Pressure Humidity
    00:00 +8°C° 0.1 mm 10 mps 749 mmHg 93%
    01:00 +8°C° 0.1 mm 10 mps 750 mmHg 93%
    02:00 +8°C° 0.1 mm 10 mps 750 mmHg 93%
    03:00 +8°C° 0.2 mm 9 mps 750 mmHg 93%
    04:00 +8°C° 0.2 mm 9 mps 750 mmHg 93%
    05:00 +8°C° 0.2 mm 9 mps 750 mmHg 93%
    06:00 +8°C° 0.2 mm 9 mps 751 mmHg 93%
    07:00 +9°C° 0.2 mm 8 mps 751 mmHg 93%
    08:00 +9°C° 0.2 mm 8 mps 751 mmHg 94%
    09:00 +9°C° 0 mm 8 mps 752 mmHg 93%
    10:00 +8°C° 0 mm 9 mps 752 mmHg 92%
    11:00 +8°C° 0 mm 9 mps 753 mmHg 91%
    12:00 +8°C° 0.1 mm 9 mps 753 mmHg 91%
    13:00 +8°C° 0.1 mm 9 mps 753 mmHg 90%
    14:00 +8°C° 0.1 mm 9 mps 753 mmHg 90%
    15:00 +8°C° 0.1 mm 9 mps 753 mmHg 91%
    16:00 +8°C° 0.1 mm 9 mps 753 mmHg 92%
    17:00 +8°C° 0.1 mm 10 mps 753 mmHg 93%
    18:00 +8°C° 0 mm 10 mps 753 mmHg 92%
    19:00 +8°C° 0 mm 10 mps 754 mmHg 91%
    20:00 +8°C° 0 mm 10 mps 754 mmHg 90%
    21:00 +8°C° 0 mm 11 mps 754 mmHg 90%
    22:00 +9°C° 0 mm 11 mps 754 mmHg 89%
    23:00 +9°C° 0 mm 11 mps 755 mmHg 89%

    22 February, Friday

    Time Temperature Precipitation Wind Pressure Humidity
    00:00 +9°C° 0.1 mm 11 mps 755 mmHg 89%
    01:00 +9°C° 0.1 mm 10 mps 755 mmHg 88%
    02:00 +9°C° 0.1 mm 10 mps 755 mmHg 88%
    03:00 +9°C° 0.1 mm 10 mps 755 mmHg 88%
    04:00 +8°C° 0.1 mm 9 mps 756 mmHg 88%
    05:00 +8°C° 0.1 mm 9 mps 756 mmHg 88%
    06:00 +8°C° 0 mm 9 mps 756 mmHg 88%
    07:00 +8°C° 0 mm 9 mps 757 mmHg 88%
    08:00 +10°C° 0 mm 9 mps 757 mmHg 88%
    09:00 +10°C° 0 mm 9 mps 757 mmHg 86%
    10:00 +11°C° 0 mm 10 mps 758 mmHg 84%
    11:00 +11°C° 0 mm 10 mps 758 mmHg 82%
    12:00 +11°C° 0 mm 10 mps 758 mmHg 80%
    13:00 +11°C° 0 mm 10 mps 758 mmHg 79%
    14:00 +12°C° 0 mm 10 mps 758 mmHg 78%
    15:00 +11°C° 0 mm 10 mps 758 mmHg 78%
    16:00 +10°C° 0 mm 9 mps 758 mmHg 79%
    17:00 +10°C° 0 mm 9 mps 758 mmHg 79%
    18:00 +10°C° 0 mm 9 mps 758 mmHg 79%
    19:00 +10°C° 0 mm 8 mps 759 mmHg 79%
    20:00 +9°C° 0 mm 8 mps 759 mmHg 80%
    21:00 +9°C° 0 mm 8 mps 759 mmHg 82%
    22:00 +9°C° 0 mm 8 mps 759 mmHg 84%
    23:00 +9°C° 0 mm 7 mps 759 mmHg 86%

    23 February, Saturday

    Time Temperature Precipitation Wind Pressure Humidity
    00:00 +8°C° 0 mm 7 mps 759 mmHg 88%
    01:00 +8°C° 0 mm 7 mps 759 mmHg 90%
    02:00 +8°C° 0 mm 7 mps 759 mmHg 92%
    03:00 +8°C° 0 mm 6 mps 759 mmHg 93%
    04:00 +8°C° 0 mm 6 mps 759 mmHg 93%
    05:00 +8°C° 0 mm 6 mps 759 mmHg 93%
    06:00 +8°C° 0 mm 6 mps 759 mmHg 92%
    07:00 +8°C° 0 mm 6 mps 759 mmHg 90%
    08:00 +8°C° 0 mm 7 mps 759 mmHg 89%
    09:00 +9°C° 0 mm 7 mps 759 mmHg 85%
    10:00 +10°C° 0 mm 7 mps 759 mmHg 81%
    11:00 +11°C° 0 mm 7 mps 759 mmHg 77%
    12:00 +11°C° 0 mm 7 mps 759 mmHg 77%
    13:00 +11°C° 0 mm 7 mps 759 mmHg 77%
    14:00 +11°C° 0 mm 7 mps 758 mmHg 78%
    15:00 +10°C° 0 mm 6 mps 758 mmHg 82%
    16:00 +9°C° 0 mm 6 mps 758 mmHg 86%
    17:00 +8°C° 0 mm 6 mps 758 mmHg 90%
    18:00 +8°C° 0 mm 6 mps 758 mmHg 90%
    19:00 +8°C° 0 mm 6 mps 758 mmHg 89%
    20:00 +8°C° 0 mm 6 mps 758 mmHg 89%
    21:00 +9°C° 0.1 mm 7 mps 758 mmHg 89%
    22:00 +9°C° 0.1 mm 7 mps 758 mmHg 89%
    23:00 +9°C° 0.1 mm 8 mps 758 mmHg 89%
    Show more